Overview Statistics Trail Chart Weather Telemetry Raw packets
 

This is the latest recevied weather packets stored in our database for station/object KC2GYU. If no packets are shown the sender has not sent any weather packets the latest 10 day(s).

<< 64 65 66 67 68 69 70 >>
Time Temp. Humidity Pressure Rain* Wind** Luminosity Snow
1777582056 18.33° C 75% 1007.7 hPa 0 mm - 114 W/m² -
1777581756 18.89° C 61% 1007.5 hPa 0 mm - 300 W/m² -
1777581454 18.33° C 67% 1007.3 hPa 0 mm - 587 W/m² -
1777581150 18.33° C 65% 1007.6 hPa 0 mm - 149 W/m² -
1777580845 17.78° C 63% 1007.6 hPa 0 mm - 162 W/m² -
1777580540 18.33° C 65% 1007.5 hPa 0 mm - 138 W/m² -
1777580235 18.89° C 63% 1007.4 hPa 0 mm - 120 W/m² -
1777579935 19.44° C 62% 1007.2 hPa 0 mm - 176 W/m² -
1777579628 18.33° C 63% 1007.4 hPa 0 mm - 690 W/m² -
1777579327 18.33° C 63% 1007.4 hPa 0 mm - 147 W/m² -
1777579023 18.89° C 62% 1007.4 hPa 0 mm - 201 W/m² -
1777578718 19.44° C 62% 1007.5 hPa 0 mm - 743 W/m² -
1777578417 18.89° C 61% 1007.5 hPa 0 mm - 694 W/m² -
1777578113 18.89° C 64% 1007.5 hPa 0 mm - 535 W/m² -
1777577809 18.89° C 61% 1007.5 hPa 0 mm - 236 W/m² -
1777577505 18.89° C 64% 1007.2 hPa 0 mm - 729 W/m² -
1777577202 19.44° C 64% 1007.4 hPa 0 mm - 151 W/m² -
1777576898 19.44° C 62% 1007.6 hPa 0 mm - 689 W/m² -
1777576597 18.89° C 65% 1007.4 hPa 0 mm - 745 W/m² -
1777576293 18.89° C 64% 1007.5 hPa 0 mm - 162 W/m² -
1777575990 18.33° C 67% 1007.3 hPa 0 mm - 703 W/m² -
1777575686 18.33° C 66% 1007.6 hPa 0 mm - 299 W/m² -
1777575382 18.89° C 66% 1007.8 hPa 0 mm - 688 W/m² -
1777575079 18.33° C 69% 1007.7 hPa 0 mm - 695 W/m² -
1777574774 18.89° C 68% 1007.8 hPa 0 mm - 137 W/m² -

* Rain latest hour (hover to see other rain measurements)
** Current wind speed in m/s (hover to see current wind gust speed)